Date,TemperatureHighF,TemperatureAvgF,TemperatureLowF,DewpointHighF,DewpointAvgF,DewpointLowF,HumidityHigh,HumidityAvg,HumidityLow,PressureMaxIn,PressureMinIn,WindSpeedMaxMPH,WindSpeedAvgMPH,GustSpeedMaxMPH,PrecipitationSumIn
2013-12-1,54.0,45.6,37.0,-99.9,-99.9,-99.9,0,0,100,0.00,40.00,8,4,13,0.11
2013-12-2,48.0,39.9,34.0,-99.9,-99.9,-99.9,0,0,100,0.00,40.00,5,2,9,0.09
2013-12-3,48.0,40.1,32.0,-99.9,-99.9,-99.9,0,0,100,0.00,40.00,9,4,11,0.01
2013-12-4,51.0,39.0,31.0,-99.9,-99.9,-99.9,0,0,100,0.00,40.00,7,2,9,0.01
2013-12-5,58.0,53.0,39.0,-99.9,-99.9,-99.9,0,0,100,0.00,40.00,10,5,14,0.02
2013-12-6,57.0,48.9,39.0,-99.9,-99.9,-99.9,0,0,100,0.00,40.00,13,8,17,0.33
2013-12-7,40.0,36.7,33.0,-99.9,-99.9,-99.9,0,0,100,0.00,40.00,13,8,19,0.51
2013-12-8,33.0,31.7,28.0,-99.9,-99.9,-99.9,0,0,100,0.00,40.00,9,4,14,0.01
2013-12-9,50.0,40.5,32.0,-99.9,-99.9,-99.9,0,0,100,0.00,40.00,12,6,20,0.49
2013-12-10,38.0,34.4,32.0,-99.9,-99.9,-99.9,0,0,100,0.00,40.00,20,8,23,0.15
2013-12-11,35.0,30.3,26.0,-99.9,-99.9,-99.9,0,0,100,0.00,40.00,17,10,22,0.02
2013-12-12,30.0,25.6,22.0,-99.9,-99.9,-99.9,0,0,100,0.00,40.00,12,8,18,0.00
2013-12-13,34.0,27.7,22.0,-99.9,-99.9,-99.9,0,0,100,0.00,40.00,19,11,25,0.00
2013-12-14,40.0,26.5,21.0,-99.9,-99.9,-99.9,0,0,100,0.00,40.00,14,7,20,0.48
2013-12-15,54.0,38.9,32.0,-99.9,-99.9,-99.9,0,0,100,0.00,40.00,17,10,22,1.78
2013-12-16,35.0,29.5,24.0,-99.9,-99.9,-99.9,0,0,100,0.00,40.00,16,10,21,0.02
2013-12-17,42.0,27.5,17.0,-99.9,-99.9,-99.9,0,0,100,0.00,40.00,10,4,16,0.39
2013-12-18,34.0,29.3,24.0,-99.9,-99.9,-99.9,0,0,100,0.00,40.00,17,9,21,0.05
2013-12-19,46.0,37.7,27.0,-99.9,-99.9,-99.9,0,0,100,0.00,40.00,19,8,28,0.00
2013-12-20,51.0,43.5,29.0,-99.9,-99.9,-99.9,0,0,100,0.00,40.00,16,6,19,0.00
2013-12-21,56.0,51.4,47.0,-99.9,-99.9,-99.9,0,0,100,0.00,40.00,17,11,22,0.01
2013-12-22,60.0,56.1,53.0,-99.9,-99.9,-99.9,0,0,100,0.00,40.00,20,15,27,0.00
2013-12-23,57.0,51.7,41.0,-99.9,-99.9,-99.9,0,0,100,0.00,40.00,14,6,20,0.60
2013-12-24,41.0,35.7,30.0,-99.9,-99.9,-99.9,0,0,100,0.00,40.00,12,8,16,0.03
2013-12-25,30.0,24.1,21.0,-99.9,-99.9,-99.9,0,0,100,0.00,40.00,13,6,20,0.00
2013-12-26,44.0,34.4,25.0,-99.9,-99.9,-99.9,0,0,100,0.00,40.00,10,4,14,0.02
2013-12-27,40.0,32.1,23.0,-99.9,-99.9,-99.9,0,0,100,0.00,40.00,15,7,21,0.00
2013-12-28,48.0,39.5,26.0,-99.9,-99.9,-99.9,0,0,100,0.00,40.00,17,8,25,0.00
2013-12-29,55.0,44.9,40.0,-99.9,-99.9,-99.9,0,0,100,0.00,40.00,20,8,28,1.43
2013-12-30,44.0,36.4,22.0,-99.9,-99.9,-99.9,0,0,100,0.00,40.00,13,9,18,0.39
2013-12-31,31.0,24.2,18.0,-99.9,-99.9,-99.9,0,0,100,0.00,40.00,15,6,24,0.00